Location: Unspecified
(0.0000°N, 0.0000°E)
Time: 13:25:10
(UTC+00:00)

Envisat - Pass Details

Date: 22 August 2019
Orbit: 764 x 766 km, 98.1° (Epoch: 21 August)

Event Time Altitude Azimuth Distance (km) Brightness Sun altitude
Rises 18:46:21 0° 172° (S) 3,230 6.0 -10.6°
Reaches altitude 10° 18:48:40 10° 173° (S) 2,302 5.3 -11.2°
Maximum altitude 18:53:44 74° 258° (WSW) 795 3.2 -12.4°
Drops below altitude 10° 18:58:46 10° 343° (NNW) 2,291 5.9 -13.7°
Sets 19:01:04 0° 345° (NNW) 3,214 6.6 -14.2°
